When you browse on this site, cookies collect data to enhance your experience and personalize the content and advertising you see.
Visit our Privacy Policy to learn more. By continuing to use the site, you agree to this use of cookies and data.
  • en Belgique
  • Liste des pays
  • À 7 jours
  • Température de l'eau
  • Carte météo
  • Widgets météo
  • user-avatar
    Se connecter

    Météo par heure à Seli

    Ce jour, 22 Janvier, Mercredi

    Heure Température Précipitation Vent Pression Humidité
    00:00 +7°C° 0 mm 6 m/s 761 mmHg 82%
    01:00 +7°C° 0 mm 6 m/s 760 mmHg 81%
    02:00 +8°C° 0 mm 5 m/s 760 mmHg 81%
    03:00 +8°C° 0 mm 5 m/s 759 mmHg 81%
    04:00 +8°C° 0 mm 5 m/s 759 mmHg 81%
    05:00 +8°C° 0 mm 5 m/s 759 mmHg 81%
    06:00 +8°C° 0 mm 5 m/s 759 mmHg 80%
    07:00 +8°C° 0 mm 5 m/s 759 mmHg 78%
    08:00 +8°C° 0 mm 5 m/s 760 mmHg 77%
    09:00 +8°C° 0 mm 4 m/s 760 mmHg 72%
    10:00 +10°C° 0 mm 4 m/s 760 mmHg 66%
    11:00 +11°C° 0 mm 3 m/s 759 mmHg 61%
    12:00 +12°C° 0 mm 3 m/s 759 mmHg 60%
    13:00 +12°C° 0 mm 3 m/s 758 mmHg 59%
    14:00 +12°C° 0 mm 3 m/s 758 mmHg 58%
    15:00 +12°C° 0 mm 3 m/s 758 mmHg 60%
    16:00 +12°C° 0 mm 2 m/s 757 mmHg 62%
    17:00 +12°C° 0 mm 2 m/s 757 mmHg 63%
    18:00 +10°C° 0 mm 2 m/s 757 mmHg 61%
    19:00 +9°C° 0 mm 2 m/s 757 mmHg 58%
    20:00 +8°C° 0 mm 2 m/s 757 mmHg 55%
    21:00 +8°C° 0 mm 2 m/s 756 mmHg 52%
    22:00 +8°C° 0 mm 2 m/s 756 mmHg 49%
    23:00 +8°C° 0 mm 2 m/s 756 mmHg 46%

    Demain, 23 Janvier, Jeudi

    Heure Température Précipitation Vent Pression Humidité
    00:00 +9°C° 0 mm 2 m/s 755 mmHg 48%
    01:00 +9°C° 0 mm 3 m/s 755 mmHg 50%
    02:00 +9°C° 0 mm 3 m/s 755 mmHg 52%
    03:00 +8°C° 0 mm 4 m/s 754 mmHg 54%
    04:00 +8°C° 0 mm 4 m/s 754 mmHg 57%
    05:00 +8°C° 0 mm 4 m/s 754 mmHg 59%
    06:00 +8°C° 0 mm 4 m/s 754 mmHg 63%
    07:00 +8°C° 0 mm 4 m/s 754 mmHg 67%
    08:00 +8°C° 0 mm 4 m/s 754 mmHg 71%
    09:00 +11°C° 0 mm 4 m/s 754 mmHg 67%
    10:00 +12°C° 0 mm 4 m/s 754 mmHg 63%
    11:00 +14°C° 0 mm 5 m/s 755 mmHg 59%
    12:00 +14°C° 0 mm 4 m/s 755 mmHg 59%
    13:00 +14°C° 0 mm 4 m/s 754 mmHg 60%
    14:00 +14°C° 0 mm 4 m/s 754 mmHg 60%
    15:00 +13°C° 0 mm 5 m/s 755 mmHg 64%
    16:00 +13°C° 0 mm 6 m/s 755 mmHg 68%
    17:00 +11°C° 0 mm 6 m/s 756 mmHg 72%
    18:00 +10°C° 0 mm 7 m/s 756 mmHg 71%
    19:00 +10°C° 0 mm 7 m/s 757 mmHg 70%
    20:00 +10°C° 0 mm 8 m/s 757 mmHg 69%
    21:00 +9°C° 0 mm 8 m/s 757 mmHg 70%
    22:00 +9°C° 0 mm 8 m/s 758 mmHg 71%
    23:00 +9°C° 0 mm 8 m/s 758 mmHg 71%

    Après-demain, 24 Janvier, Vendredi

    Heure Température Précipitation Vent Pression Humidité
    00:00 +9°C° 0 mm 7 m/s 758 mmHg 71%
    01:00 +8°C° 0 mm 7 m/s 758 mmHg 71%
    02:00 +8°C° 0 mm 7 m/s 759 mmHg 71%
    03:00 +6°C° 0 mm 7 m/s 759 mmHg 69%
    04:00 +6°C° 0 mm 7 m/s 759 mmHg 68%
    05:00 +5°C° 0 mm 7 m/s 759 mmHg 66%
    06:00 +5°C° 0 mm 7 m/s 759 mmHg 66%
    07:00 +5°C° 0 mm 6 m/s 759 mmHg 67%
    08:00 +5°C° 0 mm 6 m/s 760 mmHg 67%
    09:00 +7°C° 0 mm 5 m/s 760 mmHg 64%
    10:00 +8°C° 0 mm 5 m/s 760 mmHg 62%
    11:00 +9°C° 0 mm 5 m/s 760 mmHg 59%
    12:00 +9°C° 0 mm 5 m/s 760 mmHg 58%
    13:00 +11°C° 0 mm 4 m/s 760 mmHg 58%
    14:00 +11°C° 0 mm 4 m/s 760 mmHg 57%
    15:00 +11°C° 0 mm 3 m/s 760 mmHg 59%
    16:00 +10°C° 0 mm 3 m/s 759 mmHg 62%
    17:00 +9°C° 0 mm 3 m/s 759 mmHg 65%
    18:00 +9°C° 0 mm 3 m/s 759 mmHg 67%
    19:00 +8°C° 0 mm 2 m/s 760 mmHg 70%
    20:00 +7°C° 0 mm 2 m/s 760 mmHg 73%
    21:00 +7°C° 0 mm 2 m/s 760 mmHg 74%
    22:00 +7°C° 0 mm 2 m/s 760 mmHg 74%
    23:00 +8°C° 0 mm 1 m/s 759 mmHg 75%

    25 Janvier, Samedi

    Heure Température Précipitation Vent Pression Humidité
    00:00 +8°C° 0 mm 1 m/s 759 mmHg 75%
    01:00 +8°C° 0 mm 1 m/s 759 mmHg 74%
    02:00 +9°C° 0 mm 1 m/s 759 mmHg 74%
    03:00 +9°C° 0 mm 1 m/s 759 mmHg 77%
    04:00 +9°C° 0 mm 1 m/s 758 mmHg 80%
    05:00 +9°C° 0 mm 1 m/s 758 mmHg 83%
    06:00 +9°C° 0 mm 1 m/s 758 mmHg 84%
    07:00 +8°C° 0 mm 2 m/s 758 mmHg 85%
    08:00 +8°C° 0 mm 2 m/s 758 mmHg 86%
    09:00 +10°C° 0 mm 2 m/s 759 mmHg 80%
    10:00 +13°C° 0 mm 2 m/s 759 mmHg 75%
    11:00 +14°C° 0 mm 2 m/s 759 mmHg 70%
    12:00 +15°C° 0 mm 2 m/s 758 mmHg 68%
    13:00 +15°C° 0 mm 2 m/s 758 mmHg 66%
    14:00 +16°C° 0 mm 3 m/s 757 mmHg 65%
    15:00 +14°C° 0 mm 3 m/s 757 mmHg 69%
    16:00 +14°C° 0 mm 3 m/s 757 mmHg 73%
    17:00 +13°C° 0 mm 3 m/s 757 mmHg 77%
    18:00 +13°C° 0 mm 2 m/s 757 mmHg 78%
    19:00 +13°C° 0 mm 2 m/s 757 mmHg 80%
    20:00 +12°C° 0 mm 2 m/s 757 mmHg 81%
    21:00 +12°C° 0 mm 2 m/s 757 mmHg 82%
    22:00 +12°C° 0 mm 2 m/s 757 mmHg 82%
    23:00 +10°C° 0 mm 2 m/s 757 mmHg 83%

    26 Janvier, Dimanche

    Heure Température Précipitation Vent Pression Humidité
    00:00 +10°C° 0 mm 2 m/s 757 mmHg 82%
    01:00 +10°C° 0 mm 2 m/s 757 mmHg 82%
    02:00 +10°C° 0 mm 2 m/s 757 mmHg 81%
    03:00 +10°C° 0 mm 2 m/s 757 mmHg 83%
    04:00 +10°C° 0 mm 2 m/s 756 mmHg 85%
    05:00 +10°C° 0 mm 2 m/s 756 mmHg 87%
    06:00 +12°C° 0 mm 2 m/s 756 mmHg 88%
    07:00 +12°C° 0 mm 2 m/s 757 mmHg 88%
    08:00 +12°C° 0 mm 2 m/s 757 mmHg 89%
    09:00 +13°C° 0 mm 2 m/s 757 mmHg 83%
    10:00 +15°C° 0 mm 2 m/s 757 mmHg 78%
    11:00 +16°C° 0 mm 2 m/s 758 mmHg 72%
    12:00 +16°C° 0 mm 2 m/s 757 mmHg 71%
    13:00 +16°C° 0 mm 2 m/s 757 mmHg 69%
    14:00 +18°C° 0 mm 1 m/s 756 mmHg 68%
    15:00 +16°C° 0 mm 1 m/s 756 mmHg 71%
    16:00 +16°C° 0 mm 1 m/s 756 mmHg 75%
    17:00 +15°C° 0 mm 1 m/s 756 mmHg 78%
    18:00 +15°C° 0 mm 1 m/s 756 mmHg 78%
    19:00 +14°C° 0 mm 1 m/s 756 mmHg 78%
    20:00 +14°C° 0 mm 1 m/s 756 mmHg 78%
    21:00 +14°C° 0 mm 1 m/s 756 mmHg 78%
    22:00 +13°C° 0 mm 1 m/s 756 mmHg 78%
    23:00 +13°C° 0 mm 2 m/s 756 mmHg 79%

    27 Janvier, Lundi

    Heure Température Précipitation Vent Pression Humidité
    00:00 +13°C° 0 mm 2 m/s 756 mmHg 78%
    01:00 +13°C° 0 mm 2 m/s 755 mmHg 77%
    02:00 +13°C° 0 mm 2 m/s 755 mmHg 76%
    03:00 +13°C° 0 mm 2 m/s 755 mmHg 75%
    04:00 +13°C° 0 mm 2 m/s 754 mmHg 74%
    05:00 +13°C° 0 mm 3 m/s 754 mmHg 73%
    06:00 +12°C° 0 mm 3 m/s 754 mmHg 72%
    07:00 +12°C° 0 mm 3 m/s 755 mmHg 71%
    08:00 +12°C° 0 mm 3 m/s 755 mmHg 70%
    09:00 +14°C° 0 mm 2 m/s 755 mmHg 67%
    10:00 +15°C° 0 mm 2 m/s 755 mmHg 64%
    11:00 +16°C° 0 mm 1 m/s 755 mmHg 60%
    12:00 +16°C° 0 mm 1 m/s 755 mmHg 62%
    13:00 +16°C° 0 mm 1 m/s 754 mmHg 63%
    14:00 +16°C° 0 mm 1 m/s 754 mmHg 64%
    15:00 +16°C° 0 mm 2 m/s 754 mmHg 67%
    16:00 +16°C° 0 mm 2 m/s 753 mmHg 69%
    17:00 +16°C° 0 mm 2 m/s 753 mmHg 72%
    18:00 +15°C° 0 mm 2 m/s 753 mmHg 74%
    19:00 +14°C° 0 mm 1 m/s 753 mmHg 77%
    20:00 +14°C° 0 mm 1 m/s 754 mmHg 79%
    21:00 +14°C° 0 mm 1 m/s 754 mmHg 80%
    22:00 +13°C° 0 mm 1 m/s 754 mmHg 81%
    23:00 +13°C° 0 mm 1 m/s 754 mmHg 82%
    Voir plus